Location: ??? ???
(33.4974°N, 35.4618°E)
Time: 02:13:03
(UTC+00:00)

Cosmos 1346 Rocket - Pass Details

Date: 29 October 2020
Orbit: 535 x 543 km, 81.2° (Epoch: 25 November)

Event Time Altitude Azimuth Distance (km) Brightness Sun altitude
Rises 15:56:55 0° 358° (N) 2,708 6.3 -14.8°
Reaches altitude 10° 15:59:08 10° 3° (N) 1,812 5.4 -15.2°
Maximum altitude 16:03:01 51° 80° (E) 685 2.9 -16.0°
Drops below altitude 10° 16:06:54 10° 157° (SSE) 1,800 5.3 -16.8°
Sets 16:09:05 0° 162° (SSE) 2,688 6.2 -17.3°
